PDT,Max TemperatureF,Mean TemperatureF,Min TemperatureF,Max Dew PointF,MeanDew PointF,Min DewpointF,Max Humidity, Mean Humidity, Min Humidity, Max Sea Level PressureIn, Mean Sea Level PressureIn, Min Sea Level PressureIn, Max VisibilityMiles, Mean VisibilityMiles, Min VisibilityMiles, Max Wind SpeedMPH, Mean Wind SpeedMPH, Max Gust SpeedMPH,PrecipitationIn, CloudCover, Events, WindDirDegrees
2013-3-1,71,49,26,22,17,10,63,38,12,30.51,30.38,30.26,10,10,10,13,6,18,0.00,0,,301
2013-3-2,71,50,28,19,17,15,53,33,13,30.34,30.17,29.95,10,10,10,18,8,24,0.00,0,,250
2013-3-3,69,57,44,34,25,18,58,37,15,29.94,29.85,29.73,10,10,10,30,10,37,T,5,Rain,337
2013-3-4,68,52,36,30,19,2,64,36,7,30.08,29.97,29.91,10,10,10,21,9,26,0.00,0,,268
2013-3-5,70,56,41,25,19,12,37,24,11,30.02,29.79,29.68,10,10,10,31,20,40,0.00,0,,164
2013-3-6,66,50,33,20,9,-4,37,22,7,29.85,29.72,29.68,10,10,10,30,11,40,0.00,1,,225
2013-3-7,55,42,28,30,21,11,65,46,26,29.84,29.77,29.71,10,10,10,25,11,32,T,5,Rain,150
2013-3-8,56,46,35,30,25,18,82,53,24,29.86,29.73,29.62,10,10,10,28,12,36,0.00,4,,351
2013-3-9,58,46,34,24,14,4,59,37,15,30.33,30.11,29.87,10,10,10,30,15,37,0.00,1,,4
2013-3-10,69,48,26,11,2,-8,31,18,5,30.40,30.27,30.14,10,10,10,18,7,23,0.00,0,,321
2013-3-11,74,49,23,10,5,1,42,24,6,30.26,30.16,30.02,10,10,10,14,5,18,0.00,0,,259
2013-3-12,76,52,28,16,10,5,39,23,6,30.20,30.13,30.04,10,10,10,15,6,20,0.00,0,,290
2013-3-13,80,55,30,15,11,8,43,25,7,30.23,30.17,30.09,10,10,10,17,7,23,0.00,0,,304
2013-3-14,78,55,32,18,16,13,41,26,11,30.20,30.13,30.06,10,10,10,13,4,16,0.00,0,,337
2013-3-15,81,60,39,19,13,-2,38,21,4,30.06,29.96,29.87,10,10,10,20,8,25,0.00,0,,350
2013-3-16,79,59,38,20,13,-6,44,24,4,29.95,29.87,29.77,10,10,10,23,10,36,0.00,0,,318
2013-3-17,75,54,33,20,5,-20,40,21,2,29.97,29.89,29.80,10,10,10,22,10,29,0.00,0,,328
2013-3-18,72,53,34,29,11,3,33,20,7,30.02,29.93,29.85,10,10,10,21,8,28,0.00,1,,308
2013-3-19,74,61,48,30,25,20,46,30,14,30.02,29.94,29.88,10,10,10,18,8,23,0.00,1,,235
2013-3-20,75,61,46,29,22,10,42,27,11,29.92,29.86,29.81,10,10,10,32,11,44,0.00,2,,322
2013-3-21,75,55,35,17,5,-22,35,19,2,29.94,29.81,29.68,10,10,10,26,11,35,0.00,0,,313
2013-3-22,72,55,37,15,-6,-29,35,19,2,29.95,29.85,29.71,10,10,10,31,15,39,0.00,0,,341
2013-3-23,69,50,31,1,-6,-19,25,14,3,30.02,29.94,29.83,10,10,10,24,10,30,0.00,0,,245
2013-3-24,72,49,25,14,7,-2,34,22,10,30.06,29.95,29.85,10,10,10,21,7,25,0.00,0,,257
2013-3-25,74,52,30,10,7,1,39,23,6,29.98,29.88,29.78,10,10,10,20,7,26,0.00,0,,299
2013-3-26,75,53,30,15,7,1,28,19,9,29.86,29.81,29.74,10,10,10,10,6,30,0.00,1,,337
2013-3-27,73,52,30,28,21,13,41,26,10,29.86,29.81,29.75,10,10,10,14,6,17,0.00,2,,281
2013-3-28,73,54,34,28,23,16,64,38,12,29.99,29.93,29.87,10,10,10,17,5,23,0.00,2,,311
2013-3-29,76,55,34,30,24,20,64,38,12,30.10,30.03,29.96,10,10,10,16,6,28,0.00,0,,237
2013-3-30,77,58,38,27,23,21,50,32,13,30.08,29.97,29.86,10,10,10,22,11,30,0.00,1,,157
2013-3-31,72,61,50,34,22,-3,46,26,5,29.88,29.82,29.75,10,10,10,24,13,31,T,1,,217